Location: Beau Repaire
(50.6144°N, 4.0551°E)
Time: 20:42:48
(UTC+00:00)

Cosmos 372 Rocket - Pass Details

Date: 15 May 2026
Orbit: 734 x 761 km, 74.1° (Epoch: 7 June)

Event Time Altitude Azimuth Distance (km) Brightness Sun altitude
Rises 21:55:23 0° 337° (NNW) 3,195 9.0 -16.6°
Reaches altitude 10° 21:57:47 10° 340° (NNW) 2,264 7.8 -16.8°
Maximum altitude 22:02:52 65° 63° (ENE) 814 4.1 -17.1°
Enters shadow 22:05:24 29° 136° (SE) 1,330 4.7 -17.3°
